This demonstration page uses our WeatherBlox Daily Observations layout. Learn more.

Left ArrowRight Arrow

44.8408, -93.29828

Hourly Observations for June 23, 2015

Temp ( °F °C ) Dew Point ( °F °C ) Humidity (%) Winds ( mph kmh ) Pressure ( in mb ) Visibility ( mi km ) Precip ( " mm )
12:53 am 00:53 Clear 64 17.8 53 11.7 68 68 W 6 9 29.97 1015 10 16 0.00 0.00
1:53 am 01:53 Clear 62 16.7 53 11.7 73 73 WNW 7 11 29.99 1016 10 16 0.00 0.00
2:53 am 02:53 Clear 62 16.7 53 11.7 73 73 NW 7 11 30.01 1016 10 16 0.00 0.00
3:53 am 03:53 Clear 62 16.7 54 12.2 75 75 NW 7 11 30.02 1017 10 16 0.00 0.00
4:53 am 04:53 Clear 60 15.6 54 12.2 80 80 NW 5 7 30.04 1017 10 16 0.00 0.00
5:53 am 05:53 Sunny 60 15.6 54 12.2 80 80 Calm 30.06 1018 10 16 0.00 0.00
6:53 am 06:53 Sunny 62 16.7 55 12.8 78 78 SW 3 6 30.08 1019 10 16 0.00 0.00
7:53 am 07:53 Sunny 67 19.4 56 13.3 68 68 NNW 5 7 30.09 1019 10 16 0.00 0.00
8:53 am 08:53 Sunny 69 20.6 55 12.8 61 61 NW 8 13 30.09 1019 10 16 0.00 0.00
9:53 am 09:53 Mostly Sunny 72 22.2 53 11.7 52 52 VRB 5 7 30.10 1019 10 16 0.00 0.00
10:53 am 10:53 Partly Cloudy 73 22.8 52 11.1 48 48 W 8 13 30.11 1020 10 16 0.00 0.00
11:53 am 11:53 Mostly Sunny 75 23.9 53 11.7 46 46 W 9 15 30.11 1020 10 16 0.00 0.00
12:53 pm 12:53 Mostly Sunny 77 25 54 12.2 45 45 WNW 10 17 30.10 1019 10 16 0.00 0.00
1:53 pm 13:53 Partly Cloudy 78 25.6 51 10.6 39 39 NNW 12 19 30.10 1019 10 16 0.00 0.00
2:53 pm 14:53 Partly Cloudy 79 26.1 53 11.7 41 41 NW 10 17 30.08 1019 10 16 0.00 0.00
3:53 pm 15:53 Mostly Cloudy 78 25.6 52 11.1 40 40 W 12 19 30.09 1019 10 16 0.00 0.00
4:53 pm 16:53 Partly Cloudy 78 25.6 52 11.1 40 40 VRB 3 6 30.06 1018 10 16 0.00 0.00
5:53 pm 17:53 Mostly Sunny 79 26.1 51 10.6 38 38 WSW 9 15 30.06 1018 10 16 0.00 0.00
6:53 pm 18:53 Mostly Sunny 78 25.6 52 11.1 40 40 W 7 11 30.06 1018 10 16 0.00 0.00
7:53 pm 19:53 Mostly Sunny 78 25.6 52 11.1 40 40 WSW 8 13 30.05 1018 10 16 0.00 0.00
8:53 pm 20:53 Mostly Sunny 75 23.9 56 13.3 52 52 SW 10 17 30.06 1018 10 16 0.00 0.00
9:53 pm 21:53 Mostly Clear 74 23.3 56 13.3 54 54 SW 9 15 30.08 1019 10 16 0.00 0.00
10:53 pm 22:53 Mostly Clear 72 22.2 57 13.9 59 59 WSW 8 13 30.08 1019 10 16 0.00 0.00
11:53 pm 23:53 Clear 71 21.7 57 13.9 61 61 WSW 7 11 30.08 1019 10 16 0.00 0.00

Powered by AerisWeather